Regional Weather Roundup
Issued by NWS Sterling, VA

Home | Current Version | Previous Version | Text Only | Print | Product List | Glossary On
Versions: 1 2 3 4 5 6 7 8 9 10 11 12 13 14 15 16 17 18 19 20 21 22 23 24 25 26 27 28 29 30 31 32 33 34 35 36 37 38 39 40 41 42 43 44 45 46 47 48 49 50
000
ASUS41 KLWX 251611
RWRLWX

REGIONAL WEATHER ROUNDUP
NATIONAL WEATHER SERVICE BALTIMORE MD/WASHINGTON DC
1200 PM EDT THU MAY 25 2017

Note: "FAIR" indicates few or no clouds below 12,000 feet
with no significant weather and/or obstructions to visibility.
 TC=TEMPERATURE CELSIUS

 * =Non NWS site. Station does not report precipitation (e.g. rain,
    snow, etc.), thunder, or fog.

DCZ001-MDZ009-015-VAZ040>042-051-053>054-251700-
WASHINGTON METRO

CITY           SKY/WX    TMP DP  RH WIND       PRES   REMARKS
WASHINGTON NAT CLOUDY    67  62  84 SW12      29.52R
DULLES         CLOUDY    63  57  81 W6        29.52S
ANDREWS AFB    CLOUDY    64  64 100 SW10      29.51S
FT BELVOIR     PTSUNNY   67  60  77 W6        29.51S
QUANTICO       PTSUNNY   68  62  81 S8        29.53S
COLLEGE PARK*  CLOUDY    65  61  87 SW5       29.51R
LEESBURG*      CLOUDY    64  63  94 CALM      29.53S
MANASSAS*      CLOUDY    67  59  75 VRB5      29.52F
GAITHERSBURG*  CLOUDY    63  60  90 VRB3      29.53R

$$

MDZ006>007-011-014-251700-
BALTIMORE METRO

CITY           SKY/WX    TMP DP  RH WIND       PRES   REMARKS
BWI AIRPORT    DRIZZLE   63  63 100 CALM      29.51R FOG
MD SCIENCE CTR   N/A     63  61  93 MISG      29.54R
MARTIN STATE   DRIZZLE   64  64 100 CALM      29.52R
ANNAPOLIS      CLOUDY    70  65  84 VRB7      29.50R
FORT MEADE*    CLOUDY    63  61  94 SW7       29.53R

$$

MDZ012-015-019>023-251700-
MARYLAND EASTERN SHORE

CITY           SKY/WX    TMP DP  RH WIND       PRES   REMARKS
OCEAN CITY     PTSUNNY   71  66  84 S12       29.54R
SALISBURY      MOSUNNY   77  68  73 SW13      29.52S
BAY BRIDGE AP* CLOUDY    72  64  78 SW13      29.50R
CAMBRIDGE*     SUNNY     73  63  68 S9G24     29.51R
EASTON*        MOSUNNY   73  64  73 W13G22    29.54R

$$

MDZ017>025-251700-
SOUTHERN MARYLAND

CITY           SKY/WX    TMP DP  RH WIND       PRES   REMARKS
PATUXENT RIVER PTSUNNY   72  66  81 W10       29.51R
ST INIGOES     SUNNY     74  63  68 SW12      29.51R
LEONARDTOWN*   MOSUNNY   70  61  73 SW9       29.54S

$$

MDZ003>005-251700-
NORTH CENTRAL MARYLAND

CITY           SKY/WX    TMP DP  RH WIND       PRES   REMARKS
FREDERICK*     CLOUDY    64  64 100 N5        29.55R
HAGERSTOWN APT CLOUDY    62  57  83 NW3       29.52S HAZE
WESTMINSTER*   CLOUDY    63  61  94 CALM      29.52S FOG

$$

MDZ501>502-251700-
WESTERN MARYLAND

CITY           SKY/WX    TMP DP  RH WIND       PRES   REMARKS
OAKLAND*       CLOUDY    50  50 100 CALM      29.55R
CUMBERLAND*    PTSUNNY   61  55  82 SE3       29.56S

$$

VAZ025>031-251700-
SHENANDOAH VALLEY

CITY           SKY/WX    TMP DP  RH WIND       PRES   REMARKS
WINCHESTER*    CLOUDY    61  54  77 CALM      29.53R
FRONT ROYAL*   CLOUDY    63  59  88 CALM      29.52S
LURAY*         CLOUDY    64  59  82 S7        29.53S
NEW MARKET*    CLOUDY    65  57  77 S5        29.51F
STAUNTON*      PTSUNNY   65  57  76 SW7       29.53F
WAYNESBORO*    CLOUDY    63  58  84 SW8G16    29.52S

$$

WVZ021-048>050-054>055-251700-
EASTERN WEST VIRGINIA PANHANDLE

CITY           SKY/WX    TMP DP  RH WIND       PRES   REMARKS
MARTINSBURG    CLOUDY    61  56  83 S3        29.52R
PETERSBURG*    LGT RAIN  61  59  93 NE6       29.52S

$$

VAZ036>039-050-251700-
CENTRAL FOOTHILLS

CITY           SKY/WX    TMP DP  RH WIND       PRES   REMARKS
CHARLOTTESVILL MOSUNNY   69  61  75 SE7       29.51S
CULPEPER*      PTSUNNY   69  61  74 SW7       29.53S
ORANGE*        CLOUDY    64  59  82 CALM      29.52S
GORDONSVILLE*  CLOUDY    66  60  82 S7        29.52S
WARRENTON*     CLOUDY    68  57  67 SW5       29.52F

$$

VAZ055>057-251700-
NORTH AND CENTRAL PIEDMONT

CITY           SKY/WX    TMP DP  RH WIND       PRES   REMARKS
FREDERICKSBRG* CLOUDY    67  62  82 SW8       29.52S
STAFFORD*      CLOUDY    65  62  88 SW5       29.56S

$$

NCZ024-NYZ072-PAZ021-071-VAZ022-071-251700-
OTHER REGIONAL OBSERVATIONS

CITY           SKY/WX    TMP DP  RH WIND       PRES   REMARKS
NEW YORK CITY  RAIN      57  56  96 E9        29.64F VSB 1
PHILADELPHIA   DRIZZLE   60  57  89 E12       29.55S FOG
PITTSBURGH     CLOUDY    61  57  87 SW8       29.48R
ROANOKE        MOSUNNY   67  52  58 SW9       29.55F
RICHMOND       PTSUNNY   74  61  63 S17       29.53S
RALEIGH        MOSUNNY   73  58  59 SW16      29.57F

$$

ANZ530>537-251700-
MARINE OBSERVATIONS

STATION/POSITION TIME  TEMP    WIND        PRES
                       AIR SEA DIR/SP/G
                 (UTC) (F)     (DEG/KT/KT) (MB)
THOMAS PT LIGHT  1600   66 64  240/ 11/ 12   N/A
BALT KEY BRIDGE  1548   62     220/  2/  2  999.1R
COVE POINT       1548   70     270/ 10/ 13  999.9R
LEWISETTA        1548   72 67  230/ 11/ 14  999.4R
SOLOMONS ISLAND  1548   71 66  240/ 10/ 13   N/A
PINEY POINT      1542          250/  5/  6   N/A

$$




USA.gov is the U.S. government's official web portal to all federal, state and local government web resources and services.